GFSMW_850_spd_069.txt.gz
Wind_Speed
12 13 12 11 11 16 17 18 20 13 13 17 25 27 32 36 37 42 39 38 30 37 35 28 26 25 25 20 21 20 19 16 15 13 12 12 16 15 14 14 14 14 15
16 15 13 12 12 16 17 20 21 22 19 21 26 25 31 37 39 42 42 30 28 31 32 30 32 29 29 23 24 22 20 17 21 16 15 12 11 17 19 17 17 18 17
19 18 17 15 14 20 22 24 22 19 21 24 25 27 28 35 40 46 40 34 30 33 38 32 40 35 32 25 24 23 21 21 20 20 11 8 10 16 14 17 22 20 21
20 21 20 19 18 22 25 24 26 21 24 28 27 31 31 34 44 50 44 35 36 40 41 40 33 32 30 22 23 25 24 21 19 16 20 19 14 11 7 13 15 20 22
21 23 22 20 19 22 27 26 28 28 26 28 28 37 35 30 35 48 45 37 36 36 40 41 36 37 31 31 30 28 25 21 19 20 16 13 15 16 16 18 13 14 17
21 22 21 20 19 20 23 25 27 30 31 33 28 31 36 32 39 40 41 46 44 42 36 37 37 37 35 32 29 26 23 23 20 21 21 19 16 16 18 20 21 20 22
23 24 25 24 23 24 23 24 27 28 35 35 32 30 36 38 46 41 38 45 50 49 45 37 40 41 39 33 31 32 33 28 25 27 27 24 24 24 24 23 25 28 33
24 26 27 26 24 24 25 24 25 26 28 36 38 33 35 34 39 41 34 45 56 55 53 42 42 44 41 38 36 35 34 36 36 35 32 30 26 26 29 32 32 34 35
24 26 27 27 25 25 25 25 24 24 26 28 38 38 35 37 40 40 44 39 48 49 51 49 46 46 49 45 40 37 36 41 39 40 35 33 33 32 35 36 38 38 29
20 25 28 27 26 25 25 25 24 24 25 25 29 37 39 39 34 35 42 45 43 48 50 49 54 57 57 51 50 48 44 40 39 42 39 35 35 32 35 36 36 35 37
13 22 25 27 26 25 26 26 26 26 27 27 27 31 36 37 39 37 39 37 41 49 50 50 50 49 50 53 49 47 44 41 40 39 39 38 39 39 36 38 39 33 39
9 16 21 25 27 28 27 29 28 29 29 28 29 30 32 35 39 40 40 39 39 40 44 43 44 48 47 47 48 46 45 45 43 42 38 42 44 39 37 36 38 36 31
4 9 16 22 26 28 28 29 30 31 29 30 31 32 34 35 40 43 42 40 41 40 43 43 48 47 47 47 47 47 48 47 46 44 43 47 51 45 43 42 44 45 41
4 4 9 15 20 25 28 29 30 30 31 32 33 35 39 41 42 41 40 44 44 44 47 47 48 47 48 48 47 47 47 48 47 47 47 53 55 52 50 52 49 51 48
7 9 10 12 16 20 25 28 29 30 31 33 34 39 41 39 35 39 41 43 44 47 45 46 48 51 50 50 50 49 49 50 50 50 55 57 56 55 54 48 49 47 48
12 11 15 13 17 18 21 24 28 33 31 36 42 37 37 38 40 41 42 42 44 46 48 48 47 49 51 53 54 52 47 46 46 48 47 45 45 49 51 46 44 47 44
14 15 14 13 11 12 14 21 25 25 33 38 36 37 39 40 42 41 41 43 45 44 48 49 48 50 50 51 51 50 48 48 44 46 50 50 51 44 38 41 44 42 39
17 15 14 13 12 12 10 14 18 23 28 32 34 36 38 41 40 39 42 42 42 44 45 45 45 43 44 43 44 43 43 46 50 52 54 50 46 42 40 39 39 41 39
18 18 17 15 14 13 12 11 12 19 24 29 35 34 37 38 39 41 43 42 41 41 41 39 38 39 39 38 38 38 42 44 45 46 47 46 44 42 40 39 40 38 30
19 21 20 15 14 14 15 15 12 13 19 25 28 27 31 34 35 37 37 37 35 34 32 34 34 36 36 38 38 36 37 40 40 40 41 41 38 35 32 28 29 28 25
15 17 18 17 18 20 15 13 9 7 10 17 21 22 25 28 30 29 29 29 32 36 35 35 34 32 31 34 35 34 33 32 32 33 32 29 27 22 19 18 20 18 16
13 14 15 17 21 21 16 10 12 11 12 16 20 23 22 26 28 30 34 34 34 33 33 32 29 30 30 28 28 27 26 22 21 21 19 16 14 15 17 17 15 12 10
13 14 12 12 15 17 18 18 17 13 7 7 10 17 21 23 26 29 30 27 27 27 29 29 24 23 19 17 17 13 10 10 13 15 17 18 18 17 15 12 8 6 4
14 13 12 12 11 12 13 15 17 17 11 6 4 7 12 18 21 21 21 23 25 22 21 20 18 19 15 13 12 11 12 14 18 21 20 18 13 8 5 3 1 4 5
13 14 14 13 13 12 11 14 18 22 20 12 5 1 5 7 9 11 10 10 13 14 15 15 15 15 15 16 14 15 18 18 17 16 14 10 7 4 2 2 4 5 5
13 12 12 12 12 10 10 10 11 12 17 19 18 14 3 8 9 9 9 8 6 6 6 11 14 17 17 19 19 18 15 14 13 10 9 9 7 5 3 1 2 4 5

GFSMW_850_spd_072.txt.gz
Wind_Speed
15 16 17 16 15 13 15 13 17 11 13 15 16 22 21 27 40 37 40 38 36 35 34 36 32 30 26 26 25 24 21 19 20 17 17 16 18 17 17 20 20 24 21
19 18 17 18 15 17 19 15 20 14 13 16 20 21 21 30 36 42 36 39 37 39 37 36 34 35 34 31 26 24 24 20 23 22 19 15 18 23 24 22 22 21 20
24 23 20 19 17 16 21 21 24 19 14 18 19 22 26 32 42 39 43 41 38 39 41 37 37 33 31 31 29 27 28 29 27 27 16 10 13 14 21 28 25 24 23
26 25 23 21 19 16 21 20 21 20 20 22 25 26 30 35 39 48 42 40 40 37 29 34 35 35 34 30 30 29 30 28 25 26 25 17 10 8 4 18 23 28 26
27 26 25 23 18 19 24 25 24 23 21 28 24 27 28 31 39 49 46 46 39 39 35 34 37 39 38 34 31 28 30 28 26 22 22 22 23 22 18 17 17 20 23
26 25 25 23 21 20 25 27 24 26 23 30 28 28 28 33 40 43 53 45 41 39 40 40 39 40 37 35 34 31 31 25 20 23 24 25 26 22 18 19 18 18 21
25 26 27 27 25 24 23 26 28 30 28 29 33 31 34 33 36 43 55 52 44 43 41 43 42 39 36 35 36 33 28 25 25 24 25 27 27 25 23 20 24 25 27
24 28 28 29 28 26 22 25 26 28 31 33 33 35 31 36 33 36 46 56 53 48 45 44 42 42 39 38 39 37 31 30 27 31 36 31 31 31 30 30 31 31 30
25 26 28 29 28 30 27 24 24 27 29 36 35 35 29 32 40 39 41 49 51 54 50 47 44 44 43 41 42 41 41 39 37 38 40 37 38 38 37 35 34 34 30
23 25 27 29 28 29 29 28 25 25 24 26 36 40 36 37 39 37 42 38 46 52 55 53 50 47 41 44 45 45 45 44 42 41 41 41 42 41 41 39 39 38 39
13 26 26 28 26 26 28 29 30 27 28 25 25 34 43 39 36 35 37 46 40 39 44 54 56 54 51 46 47 50 51 51 47 42 42 42 47 46 43 42 42 43 41
6 19 23 26 28 27 28 29 29 29 30 30 25 24 31 41 40 41 44 43 42 48 46 45 48 54 56 55 54 56 55 55 57 52 47 47 45 42 43 45 45 45 44
9 13 17 22 26 26 27 28 29 29 30 30 30 28 27 33 41 44 44 44 40 40 40 42 49 52 54 56 55 55 58 57 51 49 48 47 45 44 45 48 50 51 48
5 4 12 16 20 24 27 27 29 29 29 33 34 35 35 34 35 39 41 44 43 42 42 43 42 47 51 54 54 55 56 55 53 51 50 49 47 47 48 52 55 54 52
22 13 11 1 15 19 23 27 29 31 32 33 35 38 38 37 36 36 40 41 43 46 46 44 46 45 46 48 47 47 49 49 50 51 52 52 52 52 52 56 57 54 54
22 19 18 19 18 7 21 25 29 30 32 35 38 35 36 37 41 41 41 42 45 46 47 49 51 49 51 54 54 54 52 51 50 51 52 50 50 52 55 57 54 49 48
18 18 20 17 19 19 16 14 21 27 31 35 36 37 37 38 40 41 42 46 48 47 50 52 51 53 54 55 55 54 52 51 48 47 47 48 49 52 55 52 49 48 54
16 16 19 19 15 14 11 12 7 9 27 30 34 35 35 38 37 37 42 44 44 46 48 50 50 49 52 50 49 50 50 51 53 54 51 48 48 49 51 49 49 52 53
13 15 14 12 12 13 13 13 14 14 12 13 25 31 32 35 36 39 42 42 41 41 43 43 41 43 48 44 47 45 45 44 47 49 48 47 49 51 52 53 51 43 38
13 16 11 13 16 19 14 9 7 7 9 11 12 7 28 33 35 37 39 39 39 41 37 37 40 42 42 44 43 41 40 42 44 46 48 50 51 49 44 38 32 28 24
16 18 17 16 16 16 13 12 13 13 15 14 15 14 12 18 31 33 34 34 36 37 40 40 40 39 39 40 41 39 40 41 42 43 41 39 38 36 30 21 18 20 20
21 20 17 19 19 18 16 17 18 18 19 18 16 18 18 15 17 19 26 31 34 38 38 38 39 40 40 41 41 42 42 39 37 36 28 23 17 11 10 14 16 16 15
19 17 16 15 17 19 18 16 17 20 21 18 15 15 14 15 14 9 15 18 23 27 32 35 35 34 32 30 32 34 25 26 20 18 14 12 11 14 17 16 15 11 8
17 17 16 16 17 16 15 14 13 15 18 23 24 27 23 14 8 8 6 10 16 20 22 22 24 24 20 17 5 13 14 12 14 19 20 21 22 19 14 10 9 8 6
14 14 14 14 15 15 14 15 14 12 11 11 13 18 21 20 16 11 10 11 7 9 12 10 8 10 16 13 15 14 16 19 20 22 21 17 15 17 12 8 6 6 4
12 12 13 13 14 14 13 13 12 11 10 10 11 11 10 11 12 12 10 15 21 13 13 15 12 18 19 20 22 26 24 21 18 16 16 15 13 11 10 8 5 4 5

GFSMW_850_spd_075.txt.gz
Wind_Speed
28 27 26 22 18 13 16 16 16 14 11 13 18 23 27 42 39 41 43 37 38 35 42 43 42 37 36 34 33 29 28 26 24 22 18 19 19 21 21 21 18 18 18
30 32 29 25 19 14 18 19 20 16 17 20 16 24 28 34 35 34 39 39 40 41 43 44 41 39 36 33 34 33 31 27 25 26 24 20 18 21 21 20 24 24 23
38 36 32 26 19 16 21 21 26 19 18 18 23 21 21 31 35 36 42 40 43 43 36 41 40 35 35 34 35 34 34 32 31 26 20 13 14 23 26 26 24 24 25
41 38 33 27 20 16 21 23 26 23 19 18 21 26 25 28 33 37 38 43 48 42 36 38 35 35 34 37 38 34 34 33 29 32 29 20 9 10 7 21 26 28 29
44 40 34 26 18 16 21 26 25 27 21 23 23 25 26 25 30 39 41 47 44 42 40 40 40 38 36 35 36 36 35 35 32 32 30 27 19 14 12 12 16 17 26
43 38 31 24 20 18 23 24 27 27 26 27 26 25 25 30 33 44 42 45 40 41 40 40 39 38 36 35 34 35 35 32 28 29 28 30 30 23 18 18 23 27 24
41 38 34 30 24 23 25 30 29 27 28 28 29 26 25 27 33 37 44 47 45 39 38 38 37 40 39 39 35 37 33 30 32 28 32 33 30 27 25 23 25 24 22
41 40 38 32 26 25 25 29 31 31 33 30 32 28 27 27 31 36 42 49 48 47 43 42 39 38 39 36 39 38 36 36 37 35 33 33 31 27 29 27 27 30 32
41 40 38 33 26 25 26 25 30 31 33 32 32 32 30 30 30 33 39 45 49 52 47 45 44 43 39 37 38 38 37 35 35 36 35 34 32 32 31 35 31 35 33
40 40 38 33 27 23 23 22 23 27 29 31 32 34 35 35 33 31 33 39 44 54 49 47 43 42 45 41 40 41 40 40 38 38 39 37 37 39 40 38 37 39 41
37 38 37 34 28 24 24 23 23 23 24 26 32 35 35 37 33 39 38 38 38 50 55 53 49 48 46 45 45 46 45 45 43 45 46 48 44 44 43 44 43 44 43
26 37 35 35 32 27 25 23 22 23 24 22 23 28 38 37 39 39 42 40 40 41 45 50 53 54 53 50 50 48 49 50 49 51 51 52 50 52 49 49 49 49 51
11 30 29 32 31 29 27 26 23 23 24 24 24 25 26 36 45 44 43 42 41 44 44 46 49 48 53 56 60 58 57 55 54 53 54 55 54 54 54 54 54 53 51
34 14 17 27 30 29 27 26 25 23 22 29 29 29 30 28 34 41 44 43 43 44 47 49 48 48 49 48 50 58 62 64 64 62 59 58 58 58 58 56 55 54 53
31 31 28 27 2 23 28 27 25 25 24 25 31 33 32 30 29 31 37 42 45 46 47 47 48 48 48 48 50 54 56 58 59 61 62 60 58 56 56 56 55 54 54
25 28 27 23 24 19 8 4 22 30 27 28 28 30 34 34 34 32 33 35 40 45 46 48 48 48 48 49 49 50 52 55 56 58 60 58 56 54 52 51 53 56 57
21 21 22 22 20 18 17 14 8 3 28 33 31 31 31 34 36 36 36 37 38 39 43 46 47 50 51 50 49 48 48 50 52 53 53 52 52 53 53 51 51 53 56
21 19 20 20 22 17 12 10 7 4 3 17 26 28 32 37 37 37 39 41 41 41 42 44 46 48 52 52 51 49 46 50 54 55 56 57 58 55 52 51 51 52 53
21 19 18 19 17 17 18 16 11 8 7 6 1 8 14 31 38 39 39 40 42 44 45 46 48 49 49 49 51 51 50 53 54 57 58 59 59 57 57 53 53 54 55
21 18 15 14 14 17 17 16 17 16 15 14 16 12 10 9 19 36 39 42 45 44 44 44 45 46 47 47 46 46 49 49 50 52 53 55 56 55 54 54 53 52 46
22 15 15 18 16 15 15 18 18 19 19 18 20 20 15 15 10 14 28 33 36 40 41 41 41 42 44 45 45 44 45 48 49 50 52 53 53 52 52 49 40 31 25
15 14 15 16 15 15 15 16 16 17 16 15 16 19 20 18 17 15 11 18 18 26 31 35 39 42 40 41 41 42 42 42 39 37 33 31 37 19 15 16 15 18 19
15 14 14 14 14 14 14 12 13 13 14 14 15 17 20 21 19 18 15 12 12 9 9 13 15 14 20 24 25 30 29 38 30 20 18 17 12 17 22 22 24 20 18
16 15 14 15 15 15 14 13 13 11 11 12 13 14 15 16 17 16 14 14 14 11 6 5 4 3 4 7 2 6 9 10 12 19 19 22 22 23 26 23 18 16 14
13 15 15 15 16 14 13 13 12 12 11 13 12 12 13 15 16 17 18 18 15 11 9 5 7 11 17 18 14 13 19 22 25 25 25 22 23 21 22 20 16 13 11
13 14 14 15 18 16 14 13 12 10 8 7 8 9 10 12 15 19 21 24 23 21 20 18 13 23 23 23 23 21 25 26 22 21 23 20 19 18 16 13 11 9 9

GFSMW_850_spd_078.txt.gz
Wind_Speed
38 34 31 25 22 19 15 11 15 15 14 20 16 22 25 35 47 45 47 46 43 40 36 39 42 43 43 39 37 33 28 29 27 30 20 17 16 16 15 14 14 15 14
36 37 33 28 26 21 14 12 17 15 13 17 21 29 33 34 33 42 46 43 45 43 32 41 43 42 44 39 35 35 34 30 28 32 28 22 17 18 19 18 19 20 18
42 39 37 34 28 23 16 13 19 17 15 17 23 22 22 35 44 50 49 48 45 39 36 43 46 42 43 40 33 37 35 33 31 29 29 17 12 21 24 25 24 23 24
45 44 42 37 31 24 17 17 23 21 19 19 18 20 27 33 37 43 43 44 41 39 38 43 46 41 38 36 34 37 35 33 35 37 31 24 13 15 14 28 28 26 25
50 48 47 39 30 23 21 22 26 24 21 19 21 22 23 26 27 31 39 40 39 36 36 43 43 42 37 38 38 39 35 36 36 36 40 28 19 13 13 8 18 26 28
50 48 43 37 29 24 22 25 30 29 24 22 19 23 22 24 29 32 34 38 41 38 39 38 38 41 41 33 36 31 36 38 35 37 39 36 31 24 18 16 17 19 20
44 46 43 39 32 28 26 27 31 34 30 25 23 22 23 23 23 30 33 35 39 45 43 39 35 38 35 40 38 37 42 42 39 40 37 35 32 28 27 24 22 23 24
47 50 44 41 35 29 28 27 30 33 35 30 28 26 23 23 24 25 31 34 39 46 45 44 39 37 35 32 34 38 40 40 41 41 36 36 33 29 32 31 29 28 27
44 48 44 40 35 30 28 25 28 31 32 31 30 29 28 28 28 30 29 35 39 43 47 45 41 41 40 38 38 38 37 37 39 39 38 37 35 35 37 38 36 31 29
40 44 43 39 34 29 26 24 23 29 32 31 31 30 31 29 29 28 34 35 42 44 48 47 45 43 42 41 42 42 41 41 40 42 41 43 42 43 35 37 37 39 41
40 43 40 38 32 28 26 24 23 25 28 32 32 31 32 31 29 30 32 35 37 42 46 48 47 46 45 42 43 44 45 44 45 46 44 44 41 41 43 41 45 48 47
39 40 38 36 33 30 27 24 22 23 24 24 28 33 32 33 33 33 30 32 37 39 45 46 52 50 49 49 49 50 46 46 48 48 48 51 49 48 48 49 51 51 50
20 26 30 33 33 29 26 24 22 21 21 22 24 27 30 36 36 35 37 36 36 38 39 44 49 56 56 54 52 51 51 53 53 54 55 56 53 53 52 53 55 56 55
25 20 13 10 16 20 23 25 25 22 21 22 24 25 27 30 31 34 38 39 37 39 41 43 44 47 56 58 59 58 57 56 57 56 57 58 58 58 56 55 56 57 57
36 33 25 19 14 9 7 13 18 22 24 24 24 25 24 25 26 28 31 36 41 42 43 44 45 47 48 50 51 51 52 53 55 57 61 64 64 64 63 61 63 63 59
31 29 28 28 25 17 10 5 6 15 23 28 28 27 27 28 29 30 30 31 33 36 42 44 45 46 49 50 49 49 50 52 54 56 55 56 59 61 61 61 60 60 59
29 31 29 25 20 19 15 13 8 2 11 21 26 23 23 27 31 30 31 34 35 35 36 39 41 46 48 49 50 50 49 49 49 50 51 52 55 56 57 57 56 56 54
28 29 26 23 21 18 16 12 9 11 10 6 15 20 23 22 25 30 34 36 36 37 36 37 37 39 42 43 45 46 45 48 49 50 50 51 52 52 52 50 51 50 53
27 26 23 20 18 19 18 15 12 10 9 11 6 2 8 15 23 27 29 31 35 40 42 41 40 39 39 44 46 44 46 50 51 50 51 55 55 55 55 55 55 55 57
21 21 19 17 17 20 18 16 16 13 13 13 12 7 3 3 6 10 20 29 33 34 34 35 39 40 41 45 46 47 47 51 52 52 54 56 59 59 56 56 58 59 60
17 17 16 17 19 17 16 16 16 20 19 16 15 12 10 9 8 8 10 13 19 26 30 35 37 40 43 45 48 49 48 50 50 54 56 58 60 59 59 57 54 50 45
16 16 14 15 15 14 14 16 18 17 15 15 15 17 17 16 11 9 7 8 12 12 14 19 24 28 29 36 38 44 46 42 37 36 26 18 19 22 26 27 26 20 21
16 15 15 14 14 13 13 13 15 15 16 14 14 14 14 14 14 11 8 4 2 4 7 9 11 12 12 15 18 18 16 15 12 10 3 1 1 3 5 16 21 20 16
16 15 15 16 15 14 13 12 11 12 13 15 15 15 15 15 14 13 13 12 11 9 7 6 5 5 6 7 8 8 4 7 5 10 13 15 19 22 23 19 16 17 15
15 15 15 16 17 15 12 10 9 8 9 10 10 11 13 16 18 18 19 18 16 13 13 13 13 13 16 17 15 14 15 17 20 20 20 18 20 21 19 18 14 14 12
14 15 15 14 14 13 13 12 10 9 7 6 7 8 9 11 15 18 20 19 20 19 19 21 20 22 21 20 18 17 17 16 15 17 20 21 20 19 16 14 11 9 7

GFSMW_850_spd_084.txt.gz
Wind_Speed
27 28 27 32 37 35 33 31 28 23 20 22 23 22 23 24 26 32 31 35 44 44 46 46 43 42 45 52 48 43 38 32 31 30 24 20 17 14 14 12 12 12 13
29 28 25 28 35 38 35 32 27 21 19 21 21 24 25 25 25 29 35 36 34 42 46 45 44 42 46 51 49 48 42 34 34 33 27 21 19 19 18 17 16 12 13
33 29 26 30 35 39 37 32 25 19 16 18 19 17 19 20 25 27 38 27 34 43 43 42 42 42 45 50 50 52 46 40 37 33 23 16 10 23 22 22 19 17 17
27 24 29 32 38 40 36 29 23 17 16 18 17 16 17 23 20 26 41 33 31 35 37 38 38 41 43 46 50 51 47 44 40 34 32 24 15 15 14 25 25 22 23
23 26 29 32 37 39 36 29 22 17 18 20 16 14 15 19 18 26 35 36 35 38 35 33 33 35 39 44 48 50 47 42 41 37 34 27 22 15 17 18 28 28 25
17 22 21 28 32 35 33 29 23 18 19 19 16 18 16 16 19 26 31 33 39 38 36 35 36 37 38 42 42 45 49 42 38 36 35 34 30 24 19 19 16 19 18
16 19 24 30 35 35 36 30 25 21 21 20 17 18 17 17 17 22 34 35 40 42 41 37 37 33 38 34 35 38 47 44 39 35 34 34 33 32 26 24 19 20 18
20 17 28 32 38 36 36 31 26 22 22 22 18 18 17 18 17 16 22 33 38 38 40 36 34 32 38 41 37 39 40 38 37 38 36 35 34 33 35 33 30 24 23
21 24 31 34 36 38 36 33 26 22 22 23 20 17 16 16 15 18 18 24 29 36 37 39 39 35 32 41 40 41 43 40 38 37 38 37 36 37 38 40 39 37 31
23 27 31 34 33 36 35 30 25 21 21 21 20 17 14 13 13 13 17 21 22 28 35 36 34 32 29 31 41 37 39 43 43 43 41 39 37 36 38 40 45 39 40
17 22 24 30 32 34 34 29 24 20 20 20 20 16 15 15 13 11 11 12 16 22 25 26 29 33 30 30 35 41 41 38 39 35 41 43 38 40 39 43 41 43 42
9 14 20 25 30 32 29 26 22 18 17 16 16 17 14 14 14 14 12 11 11 14 17 21 22 27 32 31 32 35 38 38 37 39 38 41 38 40 40 41 43 44 46
14 15 17 21 24 26 25 21 18 15 14 13 15 18 16 14 13 14 15 14 13 13 15 17 20 21 25 33 34 35 36 38 37 36 37 39 41 44 44 46 48 49 50
16 16 15 16 19 21 19 17 15 13 11 10 11 12 14 14 15 14 15 15 14 15 15 16 19 22 26 31 34 37 39 40 41 42 43 45 46 48 49 49 49 49 51
23 23 24 23 19 16 13 11 10 11 11 11 10 10 10 11 13 13 13 15 17 19 20 19 20 21 23 25 27 30 34 38 41 44 46 48 49 50 51 51 52 53 53
21 22 22 22 21 18 16 13 12 12 11 11 10 11 11 12 13 14 16 17 18 20 20 20 22 25 28 29 29 32 34 36 39 42 44 47 48 50 51 54 55 56 55
20 21 20 18 18 18 15 12 10 13 16 15 14 13 11 11 12 13 15 17 18 19 22 24 25 26 26 29 31 30 31 35 38 41 45 46 46 46 47 47 47 46 46
18 20 21 19 18 18 20 15 15 15 16 16 14 12 12 14 15 15 16 15 16 19 20 21 22 24 30 32 32 33 34 36 37 39 40 42 44 45 47 47 48 47 48
18 21 22 23 19 19 17 15 15 14 12 10 7 7 8 7 8 10 12 15 19 20 21 22 22 24 28 30 31 31 33 35 36 39 41 43 45 47 49 50 50 46 50
20 21 21 22 23 19 23 21 21 19 17 13 9 6 4 4 4 3 3 5 9 14 16 18 22 26 27 30 33 35 35 34 33 37 39 43 46 46 48 50 45 44 37
18 18 19 19 18 19 18 23 22 23 21 17 15 13 11 9 8 6 3 0 2 3 5 7 8 10 14 16 21 25 25 26 23 24 25 28 35 39 42 37 30 19 19
18 17 17 18 17 15 15 18 20 19 16 16 14 13 13 13 11 9 6 5 3 2 2 1 2 4 6 8 9 9 7 6 8 8 8 9 12 15 14 14 12 7 10
18 16 16 16 16 15 14 15 16 13 12 10 10 12 12 12 12 10 9 7 6 5 5 4 4 5 6 7 10 10 10 8 5 5 5 7 8 9 10 13 11 11 9
16 15 15 17 17 15 13 14 13 11 9 9 10 12 12 11 12 9 9 8 9 10 10 10 10 9 10 11 12 11 11 11 11 11 9 9 9 11 14 13 13 13 12
16 16 17 18 19 17 16 14 13 11 10 11 11 11 13 15 16 17 18 17 17 14 13 14 13 13 15 17 15 13 13 12 12 10 11 12 13 14 15 14 14 13 11
16 17 19 19 19 19 18 16 14 12 10 9 9 10 12 13 15 16 17 16 15 13 15 17 17 18 16 12 11 11 11 10 9 6 9 11 11 11 12 11 11 10 9

GFSMW_850_spd_087.txt.gz
Wind_Speed
28 29 26 24 25 27 28 33 36 34 28 26 22 23 24 25 26 27 30 29 33 36 36 36 33 35 39 41 45 42 37 35 33 30 25 21 17 16 16 17 17 17 16
32 30 28 27 25 27 29 35 37 32 28 24 21 24 24 25 26 26 31 33 33 39 39 41 43 41 43 41 47 44 39 35 35 27 25 14 17 20 19 19 18 18 17
32 32 30 28 27 28 31 36 38 30 26 22 21 25 26 25 26 28 30 38 34 37 46 43 44 42 42 41 47 47 43 41 36 33 23 12 10 18 21 22 20 19 18
34 31 31 32 29 29 32 36 34 28 25 20 22 25 23 25 25 31 23 36 37 39 46 44 46 44 42 42 46 47 44 42 39 34 29 24 17 14 11 24 22 21 21
32 31 31 27 26 29 33 35 32 28 23 19 18 17 19 19 22 19 25 30 29 29 47 43 35 38 40 40 43 48 46 44 41 40 37 25 20 16 14 13 28 27 26
23 23 22 18 22 28 32 34 30 26 22 17 19 18 14 14 13 18 24 37 27 30 34 33 30 34 36 35 38 45 47 44 39 37 38 34 28 22 19 18 19 27 28
14 13 16 22 26 29 32 34 31 27 20 19 20 18 15 14 12 16 26 27 29 32 33 28 29 29 30 32 34 39 42 44 40 39 39 36 34 30 25 22 21 17 21
16 12 15 20 23 26 32 36 33 26 20 20 20 19 16 14 13 12 21 25 32 35 34 30 27 30 34 36 35 28 35 40 34 40 39 38 35 32 31 28 23 22 18
21 14 20 21 23 26 31 35 32 26 20 21 21 19 17 15 14 12 12 28 24 34 40 32 34 33 33 31 44 39 34 38 40 43 39 37 33 32 34 32 32 31 27
29 13 17 22 23 23 28 32 29 24 21 22 21 19 17 15 14 13 13 18 26 29 37 34 37 37 34 30 38 45 41 41 45 44 42 38 38 40 36 37 35 35 35
20 6 10 16 19 23 28 31 28 23 20 20 20 18 16 14 11 12 13 12 17 22 30 32 35 36 33 33 32 40 47 41 45 43 43 44 42 37 37 38 42 40 38
17 6 7 15 19 24 28 30 27 22 19 19 18 16 13 14 13 12 12 12 13 15 18 21 26 27 31 31 29 29 46 45 41 38 42 42 45 43 39 42 44 44 45
18 5 3 13 18 22 26 28 24 20 17 16 17 19 16 14 14 14 14 13 12 13 16 18 20 21 19 22 26 28 28 34 39 36 38 37 37 41 41 40 43 41 42
27 17 6 11 16 19 21 22 21 18 15 15 16 17 16 15 14 14 13 13 12 12 12 14 15 17 17 18 20 27 27 28 31 34 37 38 38 37 37 37 40 42 46
23 22 21 17 17 17 17 15 18 17 15 13 14 14 12 13 13 12 13 14 13 12 11 11 12 13 15 17 19 23 27 30 33 36 38 40 40 40 39 40 42 41 43
18 17 16 16 18 19 17 16 17 14 13 11 11 11 13 14 14 13 12 12 12 13 13 14 13 13 14 16 18 20 23 26 29 31 32 34 35 38 40 41 43 46 48
15 16 16 15 14 17 17 16 15 16 16 15 13 12 11 12 13 13 13 12 12 13 13 14 15 14 19 21 21 22 24 25 25 26 27 29 31 32 32 33 34 38 38
14 15 16 16 15 16 18 19 16 14 15 14 12 11 12 12 11 12 13 13 14 15 15 17 18 22 25 25 24 24 24 25 25 31 33 34 35 37 38 38 38 39 42
15 18 18 21 18 20 21 22 21 18 16 13 9 9 9 9 9 10 9 11 12 13 15 17 18 19 22 25 25 25 24 25 27 29 33 35 36 37 38 38 39 39 38
19 18 21 24 28 27 23 22 24 18 17 14 11 10 9 8 6 6 5 6 8 8 9 10 12 14 16 20 24 25 24 23 25 27 29 32 33 34 37 36 33 30 26
23 18 22 25 25 25 24 26 25 26 23 17 15 14 14 13 11 10 9 7 7 7 7 5 3 2 4 7 9 9 9 11 14 15 15 16 17 19 17 15 12 13 13
21 23 22 21 22 23 21 22 22 21 19 17 16 17 16 14 13 11 11 10 9 8 8 6 5 5 5 7 6 5 3 3 5 4 2 4 8 8 8 5 5 4 3
22 21 22 21 21 20 18 18 19 14 13 9 11 13 12 11 11 10 10 9 9 8 8 7 8 8 9 10 11 10 9 7 4 5 7 10 10 10 11 13 10 8 7
23 20 20 22 20 19 17 17 13 13 12 12 15 15 15 15 14 13 12 11 12 11 11 11 11 12 12 12 12 12 11 11 10 12 11 10 10 11 12 11 10 10 10
22 22 23 23 21 17 15 12 12 11 11 13 15 16 18 19 19 19 19 18 18 15 14 15 14 14 15 16 15 14 13 13 12 10 10 10 11 11 11 11 10 9 8
21 21 21 21 21 20 19 17 14 12 12 14 15 16 17 17 18 18 18 18 16 13 14 15 14 15 14 11 10 9 9 9 8 5 7 9 9 9 9 8 7 6 5

GFSMW_850_spd_093.txt.gz
Wind_Speed
28 25 25 25 25 25 24 25 27 31 31 37 38 39 38 34 32 34 32 31 32 32 33 32 35 26 28 31 33 36 33 30 26 26 22 19 19 17 16 17 17 15 16
23 24 27 28 28 27 25 25 26 28 33 35 36 26 28 27 32 32 31 31 32 31 31 32 38 37 38 35 40 42 37 32 29 32 24 16 18 20 16 16 17 17 16
20 23 25 28 29 27 26 26 25 28 34 29 25 23 24 28 27 27 25 27 29 30 30 33 36 38 38 38 41 40 40 36 30 33 29 19 11 19 18 17 17 18 18
17 21 24 26 30 30 25 25 25 28 32 27 25 28 32 28 26 24 25 26 26 26 29 31 37 40 37 37 36 43 44 37 37 31 26 20 16 23 13 19 18 19 19
13 15 18 23 28 30 25 24 24 28 23 28 28 28 22 17 15 19 22 22 25 27 31 33 37 37 33 38 37 51 45 39 37 35 30 23 15 22 17 18 20 20 19
11 12 14 20 25 26 23 22 24 26 25 28 28 25 21 18 17 18 18 20 24 26 28 33 35 31 35 39 40 50 46 40 35 33 31 26 21 18 17 14 22 22 19
13 9 9 13 20 21 20 22 22 26 26 27 26 22 18 17 18 15 20 23 25 25 29 38 41 35 33 34 41 47 42 39 38 34 33 26 23 18 16 14 13 19 18
18 11 8 8 13 16 20 19 23 26 26 25 22 19 17 16 14 17 16 17 20 22 27 31 37 40 36 42 42 41 41 39 36 36 33 34 28 24 17 17 14 8 10
22 18 13 5 10 16 18 25 23 26 25 22 20 18 17 14 13 15 15 14 13 17 20 36 32 36 42 40 42 40 38 38 34 34 34 30 28 25 22 17 14 16 16
23 22 17 2 7 12 12 27 23 24 22 20 18 18 18 14 12 12 12 9 12 17 19 31 38 45 47 46 50 41 35 37 34 34 34 31 28 29 29 26 25 18 17
21 22 18 9 5 9 11 21 24 22 21 18 18 18 16 15 12 12 10 9 11 16 21 19 25 36 40 40 45 40 34 31 28 27 29 36 32 32 30 31 28 30 25
19 20 17 13 5 10 8 17 20 25 22 18 18 17 15 14 15 13 11 9 9 15 23 18 19 25 26 25 26 25 24 25 26 31 40 41 38 37 35 38 37 33 31
21 20 18 11 4 5 9 15 17 21 19 19 19 16 15 13 13 13 12 12 12 19 25 23 21 22 22 25 25 26 30 26 26 25 36 37 35 33 38 38 39 40 35
19 20 17 14 7 3 11 15 22 18 16 17 18 15 15 13 13 13 12 13 13 15 17 27 28 27 28 27 26 31 30 27 28 25 26 28 32 36 38 42 38 41 39
18 19 19 15 11 5 7 11 18 18 17 18 15 15 14 15 14 15 15 13 11 12 14 15 14 21 28 28 28 29 33 29 28 27 30 31 40 37 36 38 38 39 40
17 17 17 15 12 6 6 9 16 18 13 17 15 15 13 15 15 15 15 17 16 17 15 14 14 15 21 21 21 22 22 24 25 25 27 23 23 26 34 39 37 38 38
17 16 16 16 12 7 5 9 16 20 20 21 20 20 20 19 18 16 15 15 15 15 19 18 17 21 23 21 20 18 17 20 21 25 26 26 27 26 28 29 31 34 37
18 17 15 12 11 7 3 8 14 19 21 22 22 22 21 19 18 16 18 17 19 19 19 20 20 20 20 20 20 19 23 22 21 23 25 27 28 30 32 33 35 38 40
15 16 15 12 10 12 7 7 13 18 19 19 20 20 21 21 19 18 18 18 18 17 19 19 20 20 20 19 19 21 23 26 28 29 27 27 30 32 33 33 30 29 27
16 17 19 16 17 16 16 12 17 19 19 16 16 18 18 19 19 19 19 18 19 21 21 21 19 19 18 21 22 23 23 26 28 28 28 31 32 32 31 27 26 22 19
18 18 22 24 25 24 23 27 25 28 22 21 18 20 18 19 16 15 16 15 15 15 15 13 11 9 8 9 9 9 11 12 13 12 9 8 7 6 7 9 10 9 7
21 22 24 26 23 25 28 29 29 25 25 25 22 27 26 29 25 21 21 22 16 17 17 16 15 13 11 10 8 7 7 8 6 7 6 6 6 5 6 7 9 8 6
19 20 22 24 26 26 29 29 22 21 24 23 22 24 23 25 21 23 23 24 15 19 17 15 14 14 14 12 11 7 6 5 5 9 11 12 11 12 11 11 9 7 6
19 20 22 24 26 24 25 25 22 19 22 25 25 22 20 20 19 17 17 16 13 13 12 12 12 11 10 12 12 13 13 13 13 13 12 11 9 9 9 9 8 7 6
21 22 23 25 25 24 25 22 20 18 22 22 24 24 25 25 25 24 22 19 18 14 13 12 12 12 14 14 11 10 12 12 12 11 10 10 9 9 9 7 7 7 7
19 20 21 22 23 23 23 24 22 21 20 22 23 19 19 21 26 24 24 24 20 17 16 16 15 15 15 13 12 10 9 7 6 7 9 10 10 10 9 8 7 6 6

GFSMW_850_spd_096.txt.gz
Wind_Speed
28 28 26 24 27 28 31 35 35 34 34 36 35 37 36 34 32 32 29 27 26 24 28 30 29 30 30 34 30 24 30 33 33 26 27 23 21 22 21 19 13 14 20
29 32 31 30 27 26 28 27 30 32 31 36 35 38 36 34 32 34 30 30 29 27 29 31 30 28 28 42 31 28 35 36 34 33 31 23 27 24 21 20 15 13 15
23 18 18 23 31 32 30 29 26 24 27 36 30 32 29 27 30 35 33 30 30 30 30 30 32 32 34 27 28 29 30 42 39 38 35 24 17 27 24 22 22 20 19
8 12 15 19 24 30 35 32 26 25 29 37 31 30 32 34 35 32 29 29 27 27 28 30 31 31 33 32 34 30 30 42 41 34 34 31 30 34 21 24 23 24 26
7 11 14 19 24 24 32 34 30 28 33 37 30 28 33 34 27 27 28 25 25 25 26 31 30 32 35 34 33 39 36 46 43 39 32 28 25 33 28 25 29 23 24
12 11 13 13 19 23 25 33 32 29 35 35 29 29 36 30 19 19 20 22 22 25 27 28 28 31 34 36 34 34 38 49 45 38 35 38 26 32 24 24 35 32 28
15 25 14 14 14 21 28 33 32 27 30 30 29 27 29 21 20 20 18 20 22 23 27 28 31 33 39 37 36 37 37 49 47 41 40 36 29 21 26 17 23 31 27
22 26 20 22 13 17 25 26 24 26 26 23 29 30 25 23 24 24 20 25 24 24 25 25 32 31 37 32 35 31 41 49 47 42 40 35 34 23 24 18 17 26 23
19 21 22 27 11 11 20 23 20 22 26 26 26 27 22 22 23 22 24 23 19 19 22 25 26 36 36 37 31 34 44 46 45 40 35 36 33 31 25 20 13 14 17
18 21 23 28 17 10 8 12 17 20 26 27 25 24 22 20 19 22 19 18 18 18 19 21 26 36 37 31 33 33 41 48 40 38 35 37 36 34 31 25 18 15 13
19 21 22 21 18 2 3 10 21 9 25 26 23 21 18 20 18 16 15 14 14 13 13 14 20 33 33 41 38 38 48 45 38 35 34 33 35 33 30 28 27 27 20
21 22 22 19 16 13 8 6 10 11 17 22 21 16 19 17 13 15 10 10 9 7 9 11 16 30 36 36 34 42 38 40 39 36 33 30 33 32 29 28 31 34 34
24 26 24 21 18 12 7 5 13 8 19 19 17 16 16 17 14 13 10 8 8 9 14 12 9 18 25 39 42 46 43 39 33 32 26 27 30 33 35 34 34 32 29
24 25 28 24 19 14 6 1 5 10 15 19 14 16 15 14 12 11 10 9 9 12 16 15 11 14 18 21 24 30 39 29 30 29 26 28 32 38 38 39 39 37 38
25 25 28 27 22 17 9 2 5 9 10 13 15 15 14 11 10 11 9 9 9 12 17 18 17 15 16 17 21 21 22 23 28 26 24 23 20 23 31 33 35 38 35
24 25 25 26 25 21 16 8 1 10 12 17 17 16 15 13 14 15 12 10 11 10 11 12 16 16 22 24 24 22 24 28 30 30 27 22 22 28 32 30 30 31 30
23 25 25 26 25 22 18 11 5 8 17 20 19 20 19 20 18 19 20 20 16 16 17 19 21 21 19 17 20 20 19 20 20 25 25 22 26 24 24 26 31 33 34
21 22 24 25 24 19 15 12 6 5 14 20 21 18 16 18 20 19 18 20 19 19 17 15 17 18 18 17 16 18 18 18 21 20 21 23 23 24 29 30 29 31 33
20 19 20 21 20 20 16 10 8 7 11 16 18 17 18 19 20 24 22 22 21 21 19 18 16 13 13 13 16 17 20 22 19 18 20 22 23 25 24 25 27 27 27
22 21 22 24 26 25 21 15 14 14 17 14 15 14 13 15 15 15 16 16 18 21 20 19 17 18 18 18 19 20 21 23 23 22 23 25 23 23 25 22 19 18 15
23 22 25 27 28 28 26 27 25 23 19 18 17 18 16 13 13 15 17 19 19 19 17 14 12 11 11 13 15 15 16 17 16 12 8 7 9 9 12 11 11 11 10
24 25 26 26 25 27 29 30 30 22 18 22 26 24 24 24 25 24 22 20 21 21 20 19 20 19 16 12 11 10 10 11 10 11 11 11 7 4 4 6 10 9 8
23 24 26 26 26 25 27 28 25 24 23 28 24 27 25 21 21 22 25 23 23 24 20 21 24 22 21 21 14 15 12 11 13 16 16 14 13 12 12 12 10 7 7
24 24 26 28 28 26 24 25 22 24 28 30 30 27 24 22 20 20 19 16 21 21 17 21 21 20 20 18 17 20 21 21 19 18 17 15 14 12 12 11 10 9 8
22 22 24 25 26 25 25 24 22 22 23 26 27 29 27 27 26 26 26 22 23 20 19 20 21 22 21 20 16 16 17 16 15 13 13 12 12 11 10 10 9 8 7
18 19 20 21 22 24 24 22 21 20 22 23 22 20 21 23 23 23 24 23 21 20 20 19 19 20 20 16 14 13 14 12 10 10 11 11 11 10 8 7 7 6 5

GFSMW_850_spd_102.txt.gz
Wind_Speed
36 37 30 26 21 31 44 41 44 43 42 42 40 40 40 41 38 36 35 32 32 32 32 30 29 29 30 30 31 29 32 33 33 26 29 30 30 36 35 32 29 26 21
33 35 30 27 26 24 26 45 48 44 47 46 42 44 45 45 42 39 36 35 35 34 32 32 31 30 32 31 29 31 30 32 31 31 28 16 24 32 34 34 31 25 21
36 39 38 35 30 30 29 29 35 48 48 46 45 47 45 40 41 36 37 40 36 34 35 35 34 33 32 32 31 31 32 33 34 34 25 21 11 35 32 33 29 26 23
38 32 31 32 18 10 18 32 32 41 44 48 47 50 46 44 42 38 36 38 38 36 37 34 34 34 33 33 33 34 33 36 38 32 36 30 24 33 21 34 28 27 23
12 8 7 6 5 7 7 12 26 39 37 42 48 51 47 40 38 37 36 37 35 33 36 36 37 36 35 35 35 32 35 36 40 40 41 34 24 38 39 28 35 32 27
20 17 13 4 2 7 5 7 14 28 40 38 46 47 40 38 35 33 34 35 34 36 36 36 36 38 36 37 36 34 39 36 43 37 43 42 35 42 38 29 39 40 36
31 29 22 19 15 7 7 10 14 27 40 44 42 43 39 34 31 29 28 30 34 36 38 37 37 37 38 37 36 38 39 35 39 38 42 50 39 43 45 31 32 37 35
33 34 30 25 22 19 14 4 18 26 38 36 39 40 34 31 27 24 22 24 23 24 28 31 32 34 36 34 35 39 41 41 49 36 41 49 44 41 46 37 32 29 31
34 35 30 30 24 23 21 19 7 20 33 33 38 36 29 27 23 21 18 19 20 22 21 21 27 30 32 34 34 39 42 45 44 42 47 51 51 39 44 36 36 35 29
38 29 30 29 25 24 21 14 14 8 27 31 28 24 23 21 21 23 22 21 21 22 22 22 22 25 30 32 37 41 39 44 46 42 47 47 51 42 38 36 38 34 32
29 32 30 29 26 23 19 19 14 7 10 19 20 20 22 20 22 24 20 19 20 21 20 23 26 25 28 31 34 39 44 41 46 45 42 47 53 46 39 34 34 35 30
30 36 34 30 28 25 22 19 14 7 3 10 18 20 23 21 22 20 17 17 16 21 25 25 23 25 28 32 35 35 47 44 45 44 51 51 55 52 44 30 34 31 34
35 37 37 34 30 27 23 19 14 10 5 9 15 20 19 18 17 16 15 15 20 19 17 18 19 22 24 29 36 37 42 41 42 38 43 48 54 51 50 34 32 33 26
34 34 38 37 32 28 26 20 17 14 4 11 11 11 12 13 14 13 13 13 11 9 12 11 8 10 14 17 22 26 35 39 36 35 43 51 50 50 51 41 28 29 30
31 35 37 38 34 30 26 22 17 15 13 9 9 8 7 9 10 9 10 7 7 8 8 10 6 6 6 10 17 31 29 24 29 34 33 44 46 53 49 45 41 34 29
31 33 36 36 36 33 29 25 21 18 16 5 7 10 11 11 12 11 8 9 10 9 8 11 11 7 6 5 6 18 31 31 32 36 38 35 34 36 42 40 41 42 35
26 29 32 34 33 31 27 26 23 18 16 10 6 8 14 16 17 15 13 12 11 10 12 15 15 14 13 11 7 6 10 25 29 32 35 34 34 34 37 29 32 37 36
26 30 30 31 32 30 27 24 22 20 19 13 9 6 6 12 16 19 20 15 13 15 16 16 16 16 17 16 14 16 15 14 14 20 19 22 23 25 22 21 29 31 33
25 27 28 29 30 31 31 28 26 24 22 21 18 14 6 7 15 17 18 17 15 12 14 14 14 15 16 15 12 12 17 18 19 21 23 22 23 26 26 27 29 31 29
24 27 28 29 31 33 31 33 35 33 31 26 22 17 13 10 10 10 13 16 15 16 12 11 11 12 10 14 13 11 14 17 17 19 23 25 27 31 28 28 31 30 32
23 24 27 30 32 34 34 35 33 35 29 25 22 21 19 15 12 15 15 15 14 15 13 11 10 9 8 8 8 9 12 15 17 16 15 15 17 18 18 19 24 24 25
24 26 29 30 29 31 34 36 36 30 27 26 26 25 23 21 17 17 19 19 16 17 19 17 16 15 13 10 10 11 10 11 12 13 15 14 13 15 16 17 17 18 17
23 25 26 26 29 29 29 28 29 30 30 30 28 25 23 23 22 22 22 22 23 24 23 22 22 22 21 19 16 13 11 11 13 16 15 13 13 15 16 18 17 15 13
22 21 23 26 26 26 25 25 23 23 24 28 29 27 26 25 25 26 26 25 25 24 26 27 28 27 23 22 21 18 18 18 20 20 19 18 17 16 17 14 12 11 11
18 20 23 24 24 22 23 23 22 20 22 22 23 25 26 26 25 26 25 26 25 22 22 22 22 24 22 17 16 16 15 15 15 13 13 12 12 13 13 13 12 12 11
15 16 18 19 20 22 20 21 22 20 20 20 21 20 20 21 21 20 19 20 19 18 19 18 18 18 16 12 13 12 11 10 10 10 13 14 13 13 12 11 11 10 8

GFSMW_850_spd_105.txt.gz
Wind_Speed
40 39 35 37 35 33 31 34 42 42 46 51 46 44 42 35 34 33 34 35 34 33 34 33 32 31 31 29 29 29 28 32 33 34 37 35 32 31 36 37 35 33 30
36 37 36 35 32 31 29 29 32 36 43 50 46 44 42 38 35 37 37 34 36 35 35 35 35 32 31 30 28 30 28 31 34 34 28 12 25 31 36 43 36 36 34
30 35 35 35 36 35 36 31 27 30 39 47 48 46 42 41 42 41 38 35 37 36 36 35 33 34 33 32 31 31 31 30 32 33 28 10 10 20 26 32 33 37 36
20 14 17 25 27 30 33 30 29 29 33 42 48 49 46 43 45 43 40 37 36 36 38 38 37 36 34 35 34 32 31 31 31 34 37 33 15 14 12 31 31 43 35
21 23 13 7 9 16 19 20 26 28 32 36 45 47 47 46 46 47 43 41 40 39 37 40 39 37 37 37 35 32 33 33 34 37 36 38 35 28 24 20 34 38 36
22 26 18 11 3 3 11 16 19 24 30 31 37 44 43 47 48 47 46 42 43 39 37 41 39 38 37 37 36 34 34 35 36 38 41 38 37 32 33 31 37 39 36
23 28 28 21 18 10 5 11 13 17 26 31 33 39 42 45 46 45 43 40 41 41 40 38 39 38 37 37 35 36 37 38 38 39 39 40 40 41 42 35 39 34 35
23 27 27 23 22 20 12 6 12 16 18 27 32 37 38 33 36 38 35 31 35 34 41 36 36 35 36 37 36 37 38 39 37 42 40 44 43 44 40 37 40 29 31
20 29 25 24 25 24 24 14 4 12 20 22 28 34 34 34 33 30 28 26 24 23 27 33 34 34 34 33 32 34 37 38 40 43 43 43 42 40 43 42 40 37 26
30 29 29 26 25 25 21 20 12 3 17 21 27 31 26 24 25 25 26 24 19 19 23 22 24 25 28 30 29 34 36 38 39 42 42 44 46 44 48 47 47 37 31
33 29 25 29 28 24 22 21 17 10 9 18 19 22 19 22 24 24 22 21 20 22 22 22 22 23 21 24 29 32 33 38 40 40 44 41 46 44 49 49 50 44 34
32 30 36 32 29 27 24 23 21 14 6 12 18 17 18 20 21 21 20 19 19 18 21 21 22 22 24 25 28 32 39 41 39 41 45 45 49 47 52 51 48 45 42
32 39 38 36 33 31 27 25 23 18 12 3 13 15 19 20 20 20 17 17 18 18 20 21 21 19 21 25 29 33 36 39 41 41 45 49 49 50 48 56 48 45 41
31 35 38 38 34 32 29 25 24 21 11 8 12 11 11 13 15 14 13 13 14 15 14 13 15 15 14 17 24 27 33 38 40 38 48 46 53 44 48 54 49 46 41
31 32 34 37 37 34 31 27 24 21 15 11 12 11 14 10 8 8 7 9 10 8 7 8 9 9 9 10 13 20 24 26 26 36 36 45 43 45 44 54 53 43 40
29 32 35 37 39 36 34 30 27 23 18 15 14 10 14 14 12 9 8 8 9 8 9 10 12 11 10 10 11 12 13 17 26 33 29 33 34 40 46 47 56 43 41
26 32 35 36 36 33 33 32 29 23 22 21 21 15 9 12 13 11 11 12 10 12 12 12 15 15 15 13 13 12 10 10 20 26 31 29 27 34 40 49 55 37 37
28 30 30 32 34 34 35 32 30 28 27 25 24 21 14 5 6 9 12 14 14 13 14 16 17 17 18 18 18 16 13 10 8 16 24 27 27 29 42 43 51 44 33
24 27 29 30 32 35 36 37 36 36 34 32 29 25 22 18 11 4 4 7 8 12 13 13 14 12 13 15 15 13 13 13 11 9 8 14 16 23 23 25 26 30 33
23 26 30 33 36 37 37 38 39 39 39 36 32 27 24 20 19 17 10 9 6 7 6 8 6 8 9 10 9 7 10 13 14 13 14 14 13 13 15 16 15 19 24
23 24 28 31 33 35 37 40 40 40 34 32 31 31 29 27 23 18 16 14 13 13 11 10 9 6 3 3 4 5 7 8 10 10 10 15 17 18 19 19 20 22 23
22 24 27 28 28 30 32 35 39 35 33 32 33 32 30 28 26 24 21 17 15 13 19 20 20 18 13 10 7 4 2 5 6 8 10 10 10 12 15 16 18 19 21
22 24 26 27 28 30 29 31 29 29 30 32 33 32 30 29 27 27 27 26 25 22 24 24 28 26 22 20 17 15 10 9 10 12 12 9 7 7 11 15 16 16 14
22 22 24 26 27 26 27 27 27 26 26 29 30 29 29 27 27 27 26 27 27 24 24 23 25 24 24 22 21 21 18 20 20 18 18 17 15 15 17 16 16 15 13
18 20 22 24 24 24 25 26 26 24 25 26 26 26 26 26 26 26 25 24 23 21 22 20 20 21 23 20 17 16 13 15 14 12 14 17 17 18 17 16 16 16 15
15 17 19 20 22 23 24 24 24 24 24 25 25 23 22 21 21 20 18 17 15 14 15 15 15 16 15 12 13 13 13 13 10 9 12 15 15 16 15 15 15 14 12

GFSMW_850_spd_111.txt.gz
Wind_Speed
31 30 31 31 35 32 29 27 27 29 32 36 41 42 44 44 45 44 38 39 38 38 39 38 37 38 37 36 35 32 31 33 29 26 27 26 28 31 31 32 33 31 31
29 24 28 30 30 28 28 29 30 30 31 35 38 40 43 46 46 49 46 42 40 37 39 42 41 40 38 38 35 33 34 34 32 30 29 21 27 35 36 35 37 34 30
22 23 24 24 25 25 25 28 31 32 33 32 32 34 37 41 43 49 52 47 44 41 39 42 41 39 40 39 38 35 34 35 36 34 29 14 18 17 25 35 35 32 32
23 24 26 27 26 28 31 29 32 34 33 33 34 35 40 41 45 49 50 50 49 45 42 41 39 41 39 39 38 36 35 33 36 34 36 33 16 11 10 18 23 30 30
25 26 26 26 27 28 29 35 35 33 34 34 35 37 42 44 45 46 46 52 54 47 44 40 41 42 39 37 37 37 37 34 34 37 35 32 34 36 25 16 23 28 29
26 26 26 26 24 23 23 28 31 33 31 35 37 40 42 43 40 45 47 49 53 50 46 45 41 40 37 35 35 36 34 35 35 36 34 35 32 36 36 30 25 25 28
27 30 31 30 26 23 20 19 18 23 26 31 36 39 40 42 41 42 44 43 48 49 46 44 43 42 37 34 32 32 35 36 35 35 35 35 36 35 34 33 25 29 30
28 31 30 28 27 24 21 17 15 13 14 22 28 29 35 36 39 37 36 41 42 42 46 43 43 38 35 35 35 30 31 35 33 33 36 36 36 36 37 37 30 25 31
30 31 31 28 26 23 20 19 14 10 6 13 19 24 29 33 36 35 34 33 34 36 38 42 39 37 36 37 33 27 29 32 32 33 33 36 37 37 37 37 36 33 22
31 34 33 31 25 23 20 17 12 11 8 4 16 22 22 28 31 31 29 30 29 29 32 37 36 35 36 33 30 25 28 29 30 32 33 35 36 37 36 38 40 36 35
33 33 34 32 29 25 23 21 18 14 9 2 10 18 21 22 24 26 25 25 25 22 25 27 28 30 29 27 28 27 27 28 29 31 32 32 32 35 35 36 39 39 41
30 31 34 35 33 31 31 28 24 21 17 10 10 13 16 15 17 19 19 19 20 20 24 23 22 18 18 20 23 25 26 25 26 27 30 32 34 36 39 42 42 39 41
28 30 34 36 36 35 36 34 31 27 21 18 12 11 13 12 10 12 14 15 18 19 21 21 19 17 16 17 17 19 22 21 24 26 28 33 34 38 41 43 41 45 42
29 36 39 38 39 41 40 37 37 31 24 24 19 19 14 14 13 10 11 12 12 15 16 15 14 15 15 16 18 21 23 26 28 30 35 37 39 39 36 43 40 45 44
32 38 40 42 45 44 41 39 38 37 34 32 23 23 18 18 18 17 20 22 22 19 16 14 12 11 13 17 19 21 22 21 20 19 23 28 29 35 42 45 42 47 43
27 30 35 40 43 44 43 40 40 39 37 36 34 29 23 18 23 23 23 19 17 16 14 10 8 10 16 16 15 13 14 14 15 18 18 19 22 26 28 31 38 48 48
27 30 33 37 40 42 41 42 41 39 39 40 39 32 32 26 23 22 21 21 17 12 10 13 12 13 14 15 14 14 15 16 19 21 23 22 22 25 22 29 28 40 50
26 28 32 35 38 41 43 42 42 43 43 43 41 37 34 33 27 24 25 22 16 14 14 10 7 7 10 14 14 16 16 16 17 17 20 21 22 21 17 20 26 34 36
23 26 28 31 35 39 41 43 44 44 44 45 42 38 36 35 34 33 29 26 23 23 20 17 12 5 3 5 7 8 8 10 11 10 12 16 17 16 13 12 16 23 28
25 25 28 29 32 36 36 40 43 43 44 42 40 39 38 38 37 35 36 33 31 30 27 26 26 23 21 17 9 1 2 3 4 5 6 8 11 11 9 7 10 15 16
24 25 29 32 32 32 34 38 39 42 39 37 37 37 38 37 37 36 34 34 34 32 32 32 31 31 28 26 22 21 10 8 6 4 5 7 6 5 6 7 8 9 15
22 26 29 31 32 32 34 35 37 33 33 33 35 36 35 35 34 34 34 34 33 34 34 33 32 32 32 31 30 27 26 23 17 15 14 14 13 6 0 4 5 7 10
22 24 26 28 30 31 32 33 32 30 30 30 32 32 32 32 32 32 32 33 33 33 32 32 32 31 29 27 26 26 24 23 23 23 20 15 12 10 10 11 9 9 8
19 21 23 27 28 29 30 30 29 28 28 29 30 29 30 30 30 31 31 31 31 30 29 29 28 26 25 25 24 21 19 18 18 16 17 17 16 16 15 12 11 13 15
17 19 22 23 25 25 26 27 28 27 28 28 29 29 28 28 28 28 28 27 26 24 23 23 22 22 23 22 19 18 17 16 15 12 12 14 16 18 19 18 17 17 17
15 17 19 21 22 22 24 25 27 27 27 28 28 27 26 25 24 23 22 22 21 20 18 17 17 16 14 14 15 14 14 12 11 9 13 15 16 17 17 17 16 16 16

GFSMW_850_spd_117.txt.gz
Wind_Speed
10 13 16 17 18 17 18 17 16 15 15 14 17 23 29 30 31 34 34 35 35 35 35 33 32 35 38 43 38 31 32 31 26 22 21 20 23 21 19 17 20 22 22
15 16 17 18 18 19 20 20 19 17 15 15 16 20 27 32 35 35 37 39 36 37 38 37 37 37 37 39 42 40 35 34 31 27 20 16 23 23 23 23 22 23 21
16 19 20 21 21 21 21 22 22 20 19 17 19 21 25 32 30 40 41 39 41 40 42 41 42 42 41 37 41 42 43 39 37 33 21 11 17 14 22 25 25 25 25
17 20 23 24 24 24 22 21 23 22 20 19 19 21 24 28 33 36 36 41 41 45 45 44 42 43 45 40 38 41 45 42 41 40 40 26 13 13 13 16 17 19 24
20 23 24 26 27 25 25 25 24 23 21 21 21 22 24 27 30 30 39 39 41 43 47 48 46 45 44 43 39 40 44 47 44 44 38 37 32 24 18 17 15 16 18
23 24 25 27 28 27 27 26 26 24 22 21 23 25 26 28 29 31 30 40 41 45 48 49 47 48 45 41 40 40 40 44 44 44 38 33 34 29 26 26 24 22 17
24 27 29 30 30 30 30 28 26 27 25 25 26 28 30 30 30 33 40 31 39 40 47 49 49 51 48 45 42 40 39 41 42 44 36 37 27 27 27 27 25 24 22
24 26 28 28 28 28 29 30 29 28 27 28 31 31 34 35 34 35 40 38 37 41 42 44 48 49 49 52 47 41 39 39 40 41 39 39 34 31 28 26 23 23 23
23 25 26 26 28 28 29 28 30 28 27 29 31 31 32 36 39 35 33 45 36 38 38 40 40 47 46 47 49 45 40 39 38 38 37 33 33 34 33 30 29 27 25
23 25 27 28 28 29 29 26 22 24 24 23 24 26 28 32 36 31 33 40 41 35 37 35 35 40 45 45 47 43 41 40 38 36 34 34 35 32 32 29 30 30 30
24 28 31 28 29 28 29 27 23 20 19 17 15 16 21 25 30 30 33 38 40 37 32 33 32 36 42 45 43 43 42 40 39 36 33 31 33 32 32 34 34 32 32
24 27 31 32 36 36 32 31 29 23 22 14 12 14 8 4 15 21 27 32 32 30 29 29 28 27 34 38 39 40 39 40 38 33 29 33 28 31 31 31 33 33 33
25 27 30 35 37 38 37 36 34 33 29 17 18 13 10 12 11 14 15 23 22 25 24 25 24 25 26 27 30 34 36 34 31 31 30 27 27 28 29 29 30 27 26
24 26 29 33 34 38 41 39 36 37 36 32 33 30 23 17 11 10 13 12 16 22 22 21 25 27 24 29 31 33 34 31 27 25 25 21 21 21 21 24 26 27 29
24 26 27 30 32 37 40 39 38 40 41 42 43 46 35 26 20 20 20 20 20 21 22 22 23 24 23 26 28 28 25 27 23 25 23 23 23 25 29 31 32 34 34
23 25 27 28 32 35 37 36 39 42 43 45 45 46 46 42 37 30 26 26 27 25 22 21 18 18 18 20 21 23 21 20 21 22 22 23 25 27 28 24 26 28 30
21 24 26 28 30 33 33 34 39 41 44 46 47 46 46 45 46 40 37 37 33 30 29 26 22 19 15 13 12 9 12 15 18 19 19 19 20 19 22 22 23 24 26
19 20 22 24 26 28 29 29 32 41 45 46 47 47 46 45 45 45 45 44 43 40 39 36 34 24 21 13 11 8 5 4 4 8 10 14 17 19 21 21 20 21 21
15 17 18 21 25 28 31 30 34 37 43 45 45 44 44 43 43 44 45 44 41 44 43 41 41 38 37 28 20 10 8 5 6 6 4 4 6 11 14 14 17 17 17
16 19 22 24 26 28 29 33 35 37 41 40 39 38 39 39 39 38 41 40 41 42 42 40 36 38 35 33 30 25 20 17 16 14 13 15 14 12 9 10 12 13 14
18 19 22 25 27 28 29 32 33 35 33 33 34 35 36 36 36 35 36 35 36 36 36 37 36 36 32 30 30 29 25 24 22 21 20 20 20 17 15 12 9 10 11
15 19 22 24 24 25 27 30 32 30 30 32 32 35 35 35 36 35 34 34 33 33 32 32 31 30 29 28 28 25 25 23 24 24 22 20 18 17 15 15 14 13 12
12 15 19 21 23 25 26 26 27 28 28 29 32 32 32 35 35 35 35 36 35 34 32 31 29 28 27 26 24 22 22 21 19 18 17 16 15 16 16 15 14 12 11
11 11 13 18 21 23 24 26 24 25 27 28 29 30 32 30 32 34 34 34 34 33 32 30 30 27 27 26 25 23 20 18 17 16 14 13 13 14 16 15 15 16 16
10 11 13 15 17 19 21 22 24 25 24 26 27 26 24 27 25 31 33 33 33 31 29 27 24 26 26 25 22 22 22 20 17 14 13 14 14 14 15 15 14 13 13
8 10 12 12 14 15 17 20 21 21 22 21 22 25 22 23 23 22 20 27 31 30 28 26 25 22 21 19 19 18 17 16 16 16 17 18 16 17 16 15 14 14 12

GFSMW_850_spd_120.txt.gz
Wind_Speed
8 9 13 16 19 20 21 21 22 20 19 18 16 14 18 26 29 32 32 39 35 39 36 48 39 40 45 42 34 37 33 34 29 24 27 24 26 27 25 24 22 20 21
13 14 16 17 19 20 23 24 23 23 22 19 19 24 27 27 23 32 37 38 39 40 39 39 47 47 44 46 40 39 37 36 33 32 26 20 24 29 28 26 23 21 23
15 17 19 19 19 20 23 23 24 24 24 23 24 25 33 33 32 29 28 40 40 40 42 43 42 47 48 45 49 49 44 38 37 38 27 13 17 20 30 32 30 27 27
17 19 20 21 22 23 22 23 24 26 26 24 23 22 25 30 32 29 31 30 40 42 44 46 45 43 45 46 44 44 45 43 40 39 41 32 11 16 11 21 26 25 31
19 19 21 22 23 24 25 24 26 28 27 24 25 25 28 32 34 38 35 32 27 44 46 46 47 47 46 47 51 45 41 44 44 44 43 41 38 23 16 14 23 24 23
17 18 21 23 24 26 28 28 28 27 28 29 29 29 28 32 35 38 43 41 31 31 48 47 49 48 51 50 39 41 41 42 43 42 41 44 41 44 36 26 19 25 24
17 21 25 28 29 31 32 31 31 32 31 29 30 33 33 32 34 36 38 42 46 32 40 46 51 53 55 51 46 48 47 42 43 45 43 42 41 36 32 29 31 26 27
23 25 28 31 31 32 33 34 33 33 33 29 29 32 34 35 35 37 39 42 43 45 37 45 47 53 55 50 52 52 48 43 43 43 43 43 42 37 36 36 35 26 27
25 27 28 30 32 33 32 33 33 32 31 29 28 29 31 33 35 39 41 43 45 49 43 40 48 49 52 50 49 50 49 45 44 42 41 41 37 38 34 33 32 29 23
20 24 29 29 31 32 31 30 29 28 26 23 22 23 23 26 30 35 41 44 45 47 40 39 41 47 45 48 47 50 47 46 45 42 40 39 37 36 37 39 37 32 29
23 26 29 28 31 34 35 31 29 28 23 19 19 17 19 22 26 28 34 43 42 45 37 36 43 44 29 40 41 48 49 46 44 44 40 37 36 32 36 34 31 34 32
22 25 28 30 33 36 38 33 33 31 28 24 17 14 13 11 10 13 13 23 27 34 34 36 40 48 41 41 37 40 51 46 41 41 41 39 34 31 34 33 32 33 32
22 27 30 31 33 37 40 34 35 36 36 32 24 21 18 15 11 9 3 9 21 25 29 29 32 34 36 34 31 37 45 42 40 37 38 37 34 30 31 31 32 27 29
23 26 29 28 34 37 39 37 37 38 40 41 38 36 34 28 22 20 19 17 9 7 5 10 24 29 32 31 35 37 36 34 34 34 33 32 31 31 31 30 24 25 25
23 25 28 29 35 35 38 37 37 40 41 44 45 43 41 39 35 33 30 20 15 10 13 16 16 13 15 21 25 29 31 35 34 29 30 27 29 30 28 27 26 35 34
21 22 24 27 34 33 35 36 38 40 42 43 45 45 47 49 52 46 44 42 37 30 31 28 23 17 15 16 17 27 29 32 32 31 25 23 23 23 25 26 26 30 28
17 19 22 24 28 30 29 31 35 39 42 44 46 47 48 51 54 54 51 53 51 46 44 40 35 33 29 20 17 18 20 17 18 17 16 15 16 18 19 19 22 22 21
14 16 19 22 23 26 26 27 32 37 40 42 43 44 46 48 50 50 52 51 48 50 49 47 46 41 39 32 29 26 19 19 20 14 9 7 5 4 6 10 13 17 18
13 17 19 22 23 25 29 29 33 36 39 40 41 41 41 43 44 47 48 48 45 49 47 44 44 42 41 36 37 33 28 23 28 24 22 12 10 12 6 5 7 10 10
15 17 19 21 24 26 27 31 33 35 39 39 38 39 40 40 40 40 40 39 39 41 42 40 41 38 40 37 38 31 36 31 28 25 22 22 20 18 16 11 7 7 5
15 16 18 21 23 24 26 30 31 34 33 33 37 37 39 40 39 37 37 37 37 35 35 36 34 34 33 34 32 32 30 30 30 29 29 27 23 21 19 16 14 13 11
12 16 18 21 23 23 25 28 32 29 29 32 31 35 38 38 38 37 37 37 36 37 38 36 36 35 33 31 30 27 25 26 25 25 25 22 19 18 17 17 16 13 11
11 14 16 18 21 23 24 25 25 28 28 29 32 32 32 34 36 38 38 38 37 37 36 36 35 33 31 29 28 26 25 24 24 22 18 15 15 15 15 15 12 12 14
9 10 12 16 18 21 21 23 23 24 26 28 29 30 32 32 34 36 37 37 38 36 35 34 34 32 31 31 31 29 27 24 22 19 17 15 14 14 14 14 14 15 15
12 12 12 13 15 15 18 20 21 22 23 24 27 26 27 28 29 32 36 39 38 38 35 32 31 31 31 30 26 26 27 23 20 19 18 18 18 19 18 17 16 15 14
8 9 9 10 11 13 15 18 20 20 22 22 24 26 26 26 26 25 23 26 28 31 33 33 28 28 26 24 20 20 20 19 18 18 20 20 20 21 21 21 19 17 16

GFSMW_850_spd_126.txt.gz
Wind_Speed
14 14 13 13 15 15 18 20 21 23 26 27 30 37 44 47 44 42 41 33 28 33 33 29 41 51 35 41 44 39 36 38 38 33 33 33 32 30 30 31 31 29 27
16 19 20 19 20 23 24 25 24 26 28 31 30 31 38 44 45 40 39 39 36 30 30 26 26 52 47 43 42 40 39 41 41 40 34 31 34 36 35 34 33 33 31
23 26 28 29 28 28 29 30 30 29 29 31 34 35 35 41 46 43 40 42 41 38 30 29 23 31 52 49 48 45 41 39 43 42 33 16 21 33 40 40 37 36 35
24 28 31 33 35 33 31 31 31 32 31 29 33 34 37 40 43 47 44 41 43 43 38 32 25 24 32 50 50 46 44 48 50 44 46 37 21 19 19 42 42 40 39
25 28 30 32 32 33 33 33 31 31 31 32 30 35 36 38 41 45 47 45 43 44 43 39 33 27 30 38 48 51 56 52 57 50 48 53 41 26 21 22 38 43 43
27 27 28 29 30 30 31 32 33 31 31 31 31 31 34 34 37 40 44 46 45 43 44 42 40 36 30 35 41 47 54 52 53 62 59 53 51 41 35 28 28 35 39
26 28 31 31 31 32 34 33 34 34 33 33 32 30 30 31 32 34 38 41 43 42 41 40 40 42 39 37 37 41 50 57 57 64 63 46 50 47 39 31 29 30 35
25 27 28 29 30 31 31 31 33 33 33 33 31 28 26 26 27 29 30 34 37 39 35 36 38 39 41 41 36 34 36 46 50 49 44 47 43 24 39 37 37 30 32
25 25 25 25 25 27 28 29 29 29 30 29 28 26 24 23 24 25 25 27 29 31 31 32 35 37 37 40 43 38 33 37 40 42 37 31 31 50 38 37 44 41 30
22 23 23 23 24 25 26 27 26 27 27 26 26 25 23 21 20 22 23 24 24 25 30 31 32 34 36 37 38 40 37 37 36 35 32 32 35 55 46 44 43 48 45
19 20 21 22 23 23 25 27 27 28 28 27 27 25 22 18 15 17 15 17 19 19 24 22 23 28 31 32 33 37 34 34 30 35 34 38 38 52 37 53 43 42 44
14 17 19 21 24 25 26 28 28 28 27 26 28 29 25 19 16 14 12 9 9 9 11 16 19 23 29 32 31 34 30 33 31 31 34 37 39 50 46 42 54 50 49
12 15 18 21 25 27 27 26 27 27 26 26 29 32 33 27 25 23 21 18 14 12 7 7 12 16 21 22 26 28 31 26 25 28 32 40 42 32 36 42 50 51 45
10 13 18 21 22 25 24 26 27 27 27 29 31 34 37 35 31 32 34 32 32 30 26 21 15 7 2 9 18 21 21 19 25 23 30 29 32 44 44 45 49 48 44
9 13 16 18 19 21 23 25 27 27 28 30 32 35 37 39 39 38 36 40 37 38 39 38 34 26 8 9 2 8 15 13 14 21 23 25 26 44 43 44 45 45 39
7 10 14 17 19 20 22 25 27 28 28 30 32 33 37 39 42 44 44 44 44 43 43 46 47 46 43 32 20 17 13 9 10 11 12 13 24 28 26 38 39 42 39
6 9 13 16 17 19 21 25 28 29 30 32 33 32 34 35 39 39 41 43 45 44 46 46 46 47 45 40 40 38 37 38 33 24 20 15 10 8 7 10 8 21 27
7 10 12 14 15 16 19 23 26 30 32 33 34 33 34 36 38 38 39 39 39 40 42 44 44 44 43 40 40 38 38 37 36 37 34 31 25 21 17 10 4 12 9
9 10 11 13 14 15 17 19 24 28 31 34 34 34 32 34 36 38 38 38 39 40 41 41 42 41 42 38 36 35 34 36 39 38 36 33 30 25 20 17 16 13 12
10 10 10 12 13 14 15 18 21 24 29 32 32 33 33 33 35 35 36 36 37 39 38 39 40 40 40 38 36 34 33 34 32 34 33 35 30 24 22 23 19 15 16
11 10 10 12 13 13 13 17 21 24 22 24 27 30 32 34 35 34 34 34 36 36 37 38 38 38 40 37 37 35 34 33 32 32 32 29 25 24 25 22 19 20 15
13 10 10 11 11 10 11 18 21 17 18 21 24 27 29 31 33 34 35 35 36 37 38 38 37 38 37 35 33 32 32 30 31 31 28 25 22 22 20 19 17 14 12
12 9 8 10 11 10 10 14 17 15 16 19 23 25 26 29 30 33 34 37 37 38 39 39 39 36 35 34 32 31 30 29 29 26 23 21 21 20 18 17 14 13 15
11 9 8 8 10 9 11 12 11 12 14 17 20 22 25 26 29 32 35 35 37 37 38 37 38 36 34 34 32 30 28 27 26 23 21 20 20 19 18 18 18 18 17
13 9 8 9 10 9 10 11 10 11 14 18 19 22 23 25 26 27 29 31 31 32 31 31 29 32 32 30 27 28 28 25 23 21 20 22 23 23 23 22 20 19 18
14 11 9 8 9 9 10 11 11 11 13 16 16 17 18 21 22 22 21 20 22 26 28 25 25 24 23 25 27 26 24 22 22 22 26 28 28 27 25 23 21 20 19

GFSMW_850_spd_132.txt.gz
Wind_Speed
13 15 17 19 19 20 22 25 26 27 28 30 31 27 26 28 29 30 30 32 31 30 29 30 31 27 30 32 25 39 55 46 38 36 41 38 38 43 41 42 40 37 38
15 17 19 20 21 22 23 23 25 27 29 31 32 34 37 33 31 33 35 35 36 35 35 33 34 31 31 31 34 28 39 64 65 40 38 30 33 41 44 43 45 42 40
19 21 22 24 25 27 29 29 28 28 28 30 33 34 35 38 37 34 34 34 37 37 35 34 34 36 30 33 31 31 36 44 54 60 37 24 22 30 45 44 45 43 43
17 21 24 25 27 28 28 29 29 29 30 28 30 32 34 37 38 38 38 37 31 35 34 33 32 35 34 34 37 33 33 45 54 56 49 43 26 19 29 36 44 43 45
19 22 24 25 26 29 31 31 30 31 30 29 28 30 32 33 36 37 36 35 35 30 30 30 28 32 35 34 38 37 27 43 59 54 49 36 36 32 32 20 24 32 41
18 20 22 26 28 30 31 31 31 31 31 30 29 29 28 29 31 32 32 32 31 27 27 28 27 28 33 33 35 39 37 32 48 60 62 59 41 40 40 36 34 36 35
17 21 23 27 28 30 30 30 31 31 31 31 30 28 26 26 27 28 27 27 27 26 25 25 24 26 28 32 33 37 35 33 40 56 63 52 51 58 46 42 37 40 35
14 18 20 23 25 27 28 29 30 32 32 32 30 27 24 24 25 25 24 23 23 24 24 25 24 22 24 27 29 35 41 40 37 37 45 56 60 55 50 40 43 29 27
12 15 16 19 22 24 25 27 28 30 31 29 27 25 22 23 23 22 20 19 19 20 20 22 23 22 25 24 24 27 33 40 42 38 42 50 36 50 55 57 42 38 20
9 11 13 16 18 20 22 24 26 29 31 30 25 23 21 23 19 17 15 14 15 15 14 14 14 16 14 13 16 19 24 30 35 37 34 31 35 37 37 36 38 43 29
6 9 11 13 16 18 21 24 26 29 31 29 25 22 21 21 18 16 16 14 16 15 12 11 7 4 4 6 9 12 14 17 22 26 32 35 31 30 29 29 29 39 35
5 7 9 11 14 17 19 22 25 26 27 27 26 22 22 21 22 22 21 22 23 24 20 17 13 8 3 3 7 9 11 11 12 14 21 23 28 31 30 29 29 31 34
2 4 6 10 13 15 18 20 22 23 22 24 27 26 25 26 28 30 30 30 31 32 29 26 24 18 14 8 5 4 7 10 13 16 17 21 23 23 27 30 31 30 32
0 3 6 9 12 15 16 18 19 21 23 23 25 26 26 28 29 32 36 37 37 40 38 37 35 30 24 19 15 12 12 10 7 7 11 16 18 26 22 22 26 26 30
2 2 5 8 11 13 15 16 18 19 22 25 27 28 26 27 29 32 35 36 39 42 42 42 43 42 39 32 26 23 23 20 18 18 17 6 6 14 20 21 23 26 33
5 2 4 7 10 13 15 17 17 19 21 23 25 25 26 28 30 30 32 34 37 40 40 43 43 44 44 37 35 31 32 32 29 26 20 16 14 9 3 14 20 24 28
7 5 5 6 9 11 13 15 16 17 19 21 23 24 25 27 29 30 33 35 37 38 40 40 40 41 39 38 39 37 36 36 38 36 32 27 22 17 13 12 3 7 14
9 8 7 7 8 8 10 12 13 16 19 22 23 23 24 26 26 29 32 34 36 37 38 40 39 41 41 37 33 33 34 35 35 35 35 32 30 27 21 20 19 20 17
11 10 9 8 7 6 8 9 12 15 18 22 24 23 24 25 27 29 31 33 34 36 37 36 38 39 40 37 36 34 34 34 33 31 31 31 28 25 22 22 23 22 22
13 11 10 8 6 7 7 6 10 14 19 21 21 22 23 24 26 28 30 32 33 34 34 36 37 36 37 37 35 34 33 33 32 31 32 31 28 24 23 22 22 24 23
14 13 10 8 6 6 5 6 11 16 18 17 17 18 21 23 24 26 27 29 31 32 33 34 35 35 35 34 33 33 34 34 32 32 32 30 27 25 23 23 24 24 19
17 14 11 9 7 7 5 6 11 15 13 13 15 18 20 22 23 24 26 29 30 31 33 33 34 35 34 33 32 32 31 29 29 30 29 28 26 25 24 24 21 18 17
18 15 11 9 8 6 5 5 11 11 11 11 15 17 18 21 23 26 28 30 32 33 34 35 35 36 35 34 32 31 30 30 30 28 25 22 21 21 22 24 22 22 23
19 16 13 10 8 7 6 6 9 7 8 11 14 15 17 20 22 24 26 28 31 31 32 33 33 32 33 34 34 33 31 29 27 24 23 22 23 24 24 23 24 25 26
20 15 13 11 10 8 7 7 7 6 6 9 12 15 17 19 21 24 25 26 26 26 27 28 27 30 31 29 29 30 31 30 28 25 24 26 28 29 29 29 29 28 26
22 18 15 13 11 9 8 7 6 5 5 8 11 13 15 17 19 20 22 23 22 21 21 21 22 23 22 23 26 28 28 27 26 27 31 32 32 32 33 33 32 31 31

GFSMW_850_spd_135.txt.gz
Wind_Speed
11 13 15 17 18 19 21 23 25 26 28 29 30 32 32 28 27 30 32 32 31 31 31 32 32 33 32 29 26 27 27 23 26 29 37 34 31 33 34 35 38 40 40
11 13 15 18 20 22 24 25 26 28 29 31 32 32 33 35 38 34 32 34 33 34 34 34 34 34 35 34 28 28 29 31 34 36 37 28 31 35 37 39 39 42 42
11 15 17 20 21 23 24 26 27 27 28 29 30 31 32 32 33 34 37 34 33 33 34 34 35 34 36 36 34 31 33 33 36 39 40 22 30 22 24 34 42 45 45
10 14 18 20 22 24 26 28 28 29 29 29 29 29 30 32 32 35 36 36 34 33 31 32 33 34 35 37 38 35 35 36 36 35 44 51 31 20 34 37 36 40 47
10 14 16 19 22 26 28 30 29 29 29 30 29 27 26 26 28 31 33 33 32 30 31 28 28 29 30 34 37 40 36 37 41 34 38 39 50 50 32 15 28 25 44
9 13 15 19 22 25 27 28 28 27 29 30 28 26 25 26 27 28 30 29 28 28 27 26 24 27 28 29 34 38 40 37 39 43 33 42 39 40 39 44 27 28 20
8 12 16 19 21 23 25 26 26 28 31 31 27 25 23 23 25 26 27 27 26 26 27 25 26 26 27 30 31 36 39 38 38 42 43 35 44 38 36 41 49 45 36
7 11 14 16 18 20 22 24 26 29 32 33 29 24 23 23 23 22 23 21 23 24 25 25 24 25 27 28 29 33 34 34 38 41 39 37 37 45 48 41 34 33 47
6 9 11 13 16 18 20 22 25 28 32 34 29 24 23 21 21 20 18 18 18 21 21 20 21 22 24 23 27 26 26 28 31 38 41 37 28 38 43 39 40 39 30
5 7 9 11 13 16 18 19 22 25 28 31 27 24 22 20 18 17 16 15 16 19 17 16 14 13 12 13 13 17 17 18 23 31 40 36 35 28 26 48 51 49 45
4 5 7 9 11 13 15 18 21 22 23 26 26 25 23 21 18 18 18 18 18 20 20 18 14 8 4 2 1 4 10 5 8 13 21 27 34 35 33 35 35 39 43
4 3 4 6 9 11 14 18 19 21 20 20 22 23 22 22 22 23 24 24 25 25 25 25 20 16 12 8 2 3 5 9 12 11 14 17 25 23 25 30 32 34 32
5 2 1 3 7 10 13 14 17 20 21 19 18 20 22 24 25 26 29 31 32 33 33 33 31 27 24 20 17 13 10 6 5 3 4 7 16 20 22 22 23 20 25
7 4 1 2 6 10 11 12 15 17 19 20 23 23 23 23 24 26 29 32 34 38 40 40 39 36 32 29 27 23 21 20 17 14 11 8 2 9 16 21 23 22 19
9 7 4 4 6 7 9 10 13 15 17 19 21 24 24 23 23 24 25 28 32 35 38 39 41 41 40 36 32 32 30 29 26 26 25 22 17 10 3 12 15 14 16
11 8 6 6 6 7 8 10 13 14 15 17 20 21 22 22 23 24 26 29 31 33 34 37 38 39 40 36 35 33 34 34 34 32 30 28 25 23 19 16 9 8 5
14 11 8 7 7 7 9 10 13 13 14 17 19 20 21 22 25 26 27 29 32 32 35 37 39 39 36 33 32 33 33 33 36 35 34 33 32 29 26 24 20 15 9
15 13 11 9 7 7 8 10 12 13 15 18 20 20 21 23 25 26 30 31 32 34 35 38 37 38 38 35 34 34 34 34 33 33 33 32 31 30 27 24 25 25 23
15 13 12 11 8 7 7 8 10 12 14 18 20 21 21 22 24 26 28 30 31 32 34 34 36 37 38 36 34 33 34 35 36 35 35 33 31 28 25 22 25 25 25
15 15 14 12 10 8 8 6 9 12 15 17 19 19 20 22 23 25 27 28 30 32 33 34 35 36 36 35 34 34 34 35 34 34 36 36 34 31 28 26 25 22 24
18 16 14 12 10 9 8 7 9 12 15 15 17 17 19 22 23 23 25 27 29 29 31 32 33 33 34 33 33 34 35 35 33 34 34 33 30 28 27 26 28 27 21
21 17 15 13 12 10 7 8 9 12 12 11 13 17 19 20 20 22 26 27 28 30 31 32 33 35 35 35 34 34 33 31 31 32 30 28 25 24 23 24 22 19 19
21 18 15 14 12 10 9 7 11 12 9 9 14 17 17 18 20 23 26 28 29 30 30 30 30 30 32 34 34 34 32 32 31 28 25 23 23 24 24 23 21 21 22
22 20 17 14 13 11 9 8 10 10 8 9 12 13 14 17 19 22 24 26 27 28 28 26 28 27 29 31 31 32 31 30 28 26 25 26 26 26 26 25 27 28 27
23 20 18 16 14 12 11 9 9 8 6 8 11 12 15 17 19 21 22 23 23 22 21 25 23 24 25 26 25 27 28 27 27 26 27 29 31 32 33 32 31 30 28
24 22 19 17 16 14 12 10 9 8 6 7 9 11 12 15 17 18 19 20 20 19 19 20 21 18 19 19 21 24 25 25 25 27 31 32 32 32 33 33 34 34 33

GFSMW_850_spd_138.txt.gz
Wind_Speed
2 4 7 9 11 13 16 19 21 23 25 24 26 26 25 26 25 26 29 30 31 30 31 31 31 31 31 31 28 25 27 30 25 29 30 33 38 37 42 42 37 31 30
1 5 7 9 12 14 16 18 21 22 24 23 25 24 24 24 26 25 26 29 29 31 30 30 31 30 29 30 29 28 25 25 22 21 20 15 34 41 40 39 39 35 33
1 4 7 9 11 14 17 21 22 23 23 26 24 24 24 21 20 21 23 22 27 29 29 28 28 30 29 28 27 24 24 26 25 28 23 17 25 31 43 42 43 37 39
2 4 7 9 12 15 17 22 23 23 24 26 24 23 22 23 23 23 24 26 26 27 27 27 26 27 25 25 26 24 24 24 29 26 32 39 23 18 28 32 31 35 38
1 3 6 9 11 14 17 20 21 20 22 24 24 22 21 22 22 22 24 25 23 23 23 22 24 27 26 24 22 24 23 24 27 29 30 29 39 43 30 23 30 35 39
1 3 5 8 10 13 16 18 19 20 23 26 26 21 21 22 23 23 23 21 23 21 20 20 22 22 24 24 24 25 28 27 27 29 32 34 29 31 36 37 35 25 26
1 3 5 7 10 12 14 16 18 19 22 25 24 21 20 21 21 22 22 24 22 22 23 24 23 24 24 23 23 24 26 30 36 35 32 32 38 33 32 31 36 34 26
1 3 5 7 9 11 13 15 16 18 22 24 23 20 20 19 18 19 20 19 20 22 24 25 22 22 22 22 26 28 28 28 32 37 39 41 40 47 30 31 29 32 34
3 1 4 6 8 9 12 14 16 18 22 22 23 22 21 21 18 17 16 17 17 20 20 20 19 18 16 17 18 23 26 26 25 25 32 30 32 33 46 39 31 34 30
5 2 2 4 6 8 11 13 16 19 19 20 23 23 23 22 20 17 18 17 17 18 18 18 15 11 9 5 6 10 10 17 16 16 19 23 25 29 32 40 28 48 38
8 7 4 3 5 7 9 12 15 16 17 18 20 20 21 21 21 21 19 19 19 19 22 20 15 13 9 3 6 1 4 9 11 15 16 16 19 21 22 30 38 22 31
9 6 3 2 3 5 7 10 11 13 16 17 16 16 18 19 20 22 23 23 25 26 27 27 22 19 18 14 12 13 11 7 5 3 6 11 18 20 24 32 30 28 24
9 6 4 3 1 3 5 7 9 11 14 16 17 18 19 19 19 21 23 26 28 31 31 32 30 28 25 24 22 19 18 17 15 14 12 7 5 11 15 18 22 24 23
12 8 6 5 4 1 4 6 8 10 12 15 16 17 19 20 21 20 21 23 26 30 32 33 34 33 32 30 28 26 26 25 23 20 21 21 15 6 1 8 16 19 18
13 11 9 7 4 1 3 5 7 8 12 13 14 16 18 18 18 20 22 23 27 28 30 31 33 35 36 35 34 34 32 32 31 30 30 30 28 27 22 13 5 3 7
15 13 11 9 6 4 4 4 5 6 11 11 13 15 17 16 18 19 23 23 26 29 30 34 35 35 34 33 33 34 36 35 35 35 33 31 31 30 27 24 20 14 15
17 15 13 11 9 7 6 5 6 7 9 10 13 15 16 17 18 20 21 23 27 28 31 32 33 34 33 31 32 32 33 34 35 34 32 31 30 29 29 27 24 22 24
18 16 14 12 11 9 7 7 6 7 9 9 12 15 15 17 17 19 21 23 25 28 30 32 33 32 33 30 29 31 32 34 35 35 34 33 31 28 27 26 27 27 26
18 19 17 14 12 10 9 7 7 7 8 9 11 13 14 14 16 18 20 22 23 26 29 31 31 33 33 31 30 30 30 32 34 35 36 34 31 29 25 23 24 24 25
19 19 18 15 14 12 10 8 8 8 10 10 11 12 13 14 16 17 19 21 22 24 27 29 31 31 32 32 31 30 30 31 31 32 33 34 33 30 28 27 26 25 24
20 19 18 16 14 12 11 10 9 10 11 11 11 11 12 14 16 15 16 17 18 19 21 23 27 30 30 31 32 32 31 30 30 31 32 31 29 27 27 27 27 25 20
22 21 20 17 15 13 11 10 10 11 11 10 10 11 13 13 13 15 17 15 15 16 18 19 20 21 25 29 30 30 30 29 29 29 28 26 24 24 23 24 22 21 21
23 22 20 19 17 15 13 11 11 10 10 9 10 11 11 12 13 13 14 14 15 14 16 17 18 19 20 21 25 27 27 26 26 25 23 21 22 23 25 24 23 23 24
24 23 21 19 18 16 15 12 12 12 10 9 9 10 10 11 12 13 14 14 14 14 15 16 16 16 18 20 21 23 24 25 22 21 21 23 23 24 25 27 29 30 29
24 23 22 20 19 17 15 14 12 11 10 9 9 9 9 10 12 13 13 13 16 15 13 14 15 14 16 19 21 22 23 23 22 19 18 20 22 23 24 24 25 26 26
24 23 20 20 20 18 16 15 13 12 10 9 8 7 7 8 8 8 10 13 13 13 14 15 12 11 13 14 18 20 21 21 22 17 19 20 20 21 21 22 22 23 24